CST,Max TemperatureF,Mean TemperatureF,Min TemperatureF,Max Dew PointF,MeanDew PointF,Min DewpointF,Max Humidity, Mean Humidity, Min Humidity, Max Sea Level PressureIn, Mean Sea Level PressureIn, Min Sea Level PressureIn, Max VisibilityMiles, Mean VisibilityMiles, Min VisibilityMiles, Max Wind SpeedMPH, Mean Wind SpeedMPH, Max Gust SpeedMPH,PrecipitationIn, CloudCover, Events, WindDirDegrees
2012-12-1,67,58,50,60,57,50,100,90,73,30.03,29.93,29.82,10,10,10,17,10,28,1.94,7,,180
2012-12-2,69,56,44,61,51,44,100,95,52,30.03,29.97,29.90,10,6,0,12,6,,9.65,0,Fog,206
2012-12-3,73,62,51,63,57,46,100,82,58,30.01,29.86,29.75,10,10,4,31,17,39,0.10,5,Rain,232
2012-12-4,60,49,37,44,34,29,77,59,31,30.33,30.22,30.01,10,10,10,10,7,,1.13,2,,349
2012-12-5,57,44,31,36,32,28,88,61,42,30.36,30.25,30.08,10,10,7,8,4,,0.00,1,,155
2012-12-6,54,46,39,46,40,31,96,77,62,30.05,29.95,29.88,10,10,10,10,7,,0.00,4,,135
2012-12-7,51,47,43,47,45,43,100,95,82,29.92,29.89,29.84,10,10,6,10,6,,0.00,7,,15
2012-12-8,45,41,37,43,40,36,100,95,75,30.01,29.94,29.89,10,9,4,12,8,,0.01,8,Rain,55
2012-12-9,44,34,23,44,39,14,100,95,63,30.06,29.88,29.83,10,5,0,20,5,28,0.00,7,Fog,322
2012-12-10,31,24,17,18,14,12,86,70,60,30.10,30.07,30.03,10,10,10,15,11,18,0.00,5,,282
2012-12-11,43,30,17,21,17,12,87,63,39,30.20,30.12,30.06,10,10,10,13,9,,0.00,0,,216
2012-12-12,49,36,24,21,18,12,81,53,24,30.28,30.21,30.18,10,10,10,21,10,28,0.00,0,,191
2012-12-13,57,45,33,26,22,18,62,45,28,30.22,30.16,30.11,10,10,10,22,13,32,0.27,0,,191
2012-12-14,53,42,32,43,32,25,100,59,38,30.15,29.96,29.76,10,9,2,24,11,34,0.35,6,Rain,170
2012-12-15,55,48,40,50,45,40,100,92,67,29.76,29.66,29.55,10,10,6,30,15,36,0.09,6,Rain,205
2012-12-16,39,34,30,40,36,30,100,100,100,29.79,29.74,29.70,10,3,0,10,4,,0.00,3,Fog,347
2012-12-17,42,36,30,38,36,31,100,99,81,29.79,29.76,29.73,10,5,1,10,6,,0.00,6,,304
2012-12-18,58,45,32,38,34,31,100,76,36,29.92,29.76,29.66,10,10,7,22,10,25,0.00,0,,241
2012-12-19,54,42,33,54,40,33,100,95,78,29.92,29.70,29.37,10,8,2,12,6,17,0.06,6,Rain,98
2012-12-20,51,37,21,52,32,16,100,94,75,30.23,29.62,29.30,10,4,0,34,15,50,0.17,6,Fog-Rain-Snow,306
2012-12-21,37,28,19,20,16,13,83,65,42,30.39,30.32,30.24,10,10,10,12,7,,0.01,0,,285
2012-12-22,54,37,20,34,23,17,91,61,42,30.27,30.08,29.95,10,10,10,12,4,,0.00,0,,193
2012-12-23,39,32,25,32,27,21,99,86,50,30.00,29.94,29.90,10,10,10,10,5,,0.00,0,,354
2012-12-24,26,22,17,26,19,14,100,93,82,30.18,30.08,29.94,10,9,5,16,9,,0.00,4,,341
2012-12-25,25,21,16,23,19,12,100,89,75,30.31,30.23,30.18,10,10,8,26,13,30,0.00,8,,25
2012-12-26,26,20,14,19,14,10,97,81,70,30.25,30.21,30.18,10,10,10,18,12,25,0.00,6,,343
2012-12-27,37,26,14,27,22,14,100,84,56,30.21,30.09,29.99,10,10,10,13,4,18,0.00,4,,120
2012-12-28,33,28,23,30,25,17,100,83,74,30.07,30.00,29.95,10,10,10,16,8,20,0.00,8,,286
2012-12-29,33,27,21,21,18,16,93,77,50,30.35,30.20,30.07,10,10,7,16,12,24,0.00,5,Snow,284
2012-12-30,45,32,19,24,19,16,88,61,37,30.39,30.29,30.17,10,10,10,22,10,24,0.00,0,,200
2012-12-31,36,30,23,34,30,18,100,94,47,30.19,30.15,30.07,10,5,1,20,10,23,0.14,8,Rain-Snow,221